Time,TemperatureF,DewpointF,PressureIn,WindDirection,WindDirectionDegrees,WindSpeedMPH,WindSpeedGustMPH,Humidity,HourlyPrecipIn,Conditions,Clouds,dailyrainin,SoftwareType,DateUTC
2013-04-15 18:57:00,58.3,22.6,30.03,North,0,0.0,0.0,25,0.00,,---,0.00,VWS V12.08,2013-04-15 22:57:00,
2013-04-15 18:58:00,58.1,22.5,30.03,North,0,0.0,0.0,25,0.00,,---,0.00,VWS V12.08,2013-04-15 22:58:00,
2013-04-15 19:03:00,57.9,22.3,30.03,North,0,0.0,0.0,25,0.00,,---,0.00,VWS V12.08,2013-04-15 23:03:00,
2013-04-15 19:08:00,57.7,22.2,30.03,North,0,0.0,0.0,25,0.00,,---,0.00,VWS V12.08,2013-04-15 23:08:00,
2013-04-15 19:13:00,57.4,21.9,30.03,North,0,0.0,0.0,25,0.00,,---,0.00,VWS V12.08,2013-04-15 23:13:00,
2013-04-15 19:18:00,57.2,21.7,30.03,North,0,0.0,0.0,25,0.00,,---,0.00,VWS V12.08,2013-04-15 23:18:00,
2013-04-15 19:23:00,56.8,21.4,30.06,North,0,0.0,0.0,25,0.00,,---,0.00,VWS V12.08,2013-04-15 23:23:00,
2013-04-15 19:28:00,56.5,22.0,30.06,North,0,0.0,0.0,26,0.00,,---,0.00,VWS V12.08,2013-04-15 23:28:00,
2013-04-15 19:33:00,56.3,21.9,30.06,North,0,0.0,0.0,26,0.00,,---,0.00,VWS V12.08,2013-04-15 23:33:00,
2013-04-15 19:38:00,55.9,21.6,30.06,North,0,0.0,0.0,26,0.00,,---,0.00,VWS V12.08,2013-04-15 23:38:00,
2013-04-15 19:43:00,55.8,21.4,30.06,North,0,0.0,0.0,26,0.00,,---,0.00,VWS V12.08,2013-04-15 23:43:00,
2013-04-15 19:48:00,55.6,21.3,30.06,North,0,0.0,0.0,26,0.00,,---,0.00,VWS V12.08,2013-04-15 23:48:00,
2013-04-15 19:53:00,55.4,21.1,30.06,North,0,0.0,0.0,26,0.00,,---,0.00,VWS V12.08,2013-04-15 23:53:00,
2013-04-15 19:58:00,55.0,20.8,30.06,North,0,0.0,0.0,26,0.00,,---,0.00,VWS V12.08,2013-04-15 23:58:00,
2013-04-15 20:03:00,54.7,20.5,30.06,North,0,0.0,0.0,26,0.00,,---,0.00,VWS V12.08,2013-04-16 00:03:00,
2013-04-15 20:08:00,54.5,20.3,30.06,North,0,0.0,0.0,26,0.00,,---,0.00,VWS V12.08,2013-04-16 00:08:00,
2013-04-15 20:13:00,54.3,20.2,30.06,North,0,0.0,0.0,26,0.00,,---,0.00,VWS V12.08,2013-04-16 00:13:00,
2013-04-15 20:18:00,54.0,20.8,30.06,North,0,0.0,0.0,27,0.00,,---,0.00,VWS V12.08,2013-04-16 00:18:00,
2013-04-15 20:23:00,53.6,20.5,30.06,North,0,0.0,0.0,27,0.00,,---,0.00,VWS V12.08,2013-04-16 00:23:00,
2013-04-15 20:28:00,53.4,20.3,30.06,North,0,0.0,0.0,27,0.00,,---,0.00,VWS V12.08,2013-04-16 00:28:00,
2013-04-15 20:33:00,53.2,20.1,30.06,North,0,0.0,0.0,27,0.00,,---,0.00,VWS V12.08,2013-04-16 00:33:00,
2013-04-15 20:38:00,53.1,20.0,30.09,North,0,0.0,0.0,27,0.00,,---,0.00,VWS V12.08,2013-04-16 00:38:00,
2013-04-15 20:43:00,52.9,19.8,30.09,North,0,0.0,0.0,27,0.00,,---,0.00,VWS V12.08,2013-04-16 00:43:00,
2013-04-15 20:48:00,52.9,19.8,30.09,North,0,0.0,0.0,27,0.00,,---,0.00,VWS V12.08,2013-04-16 00:48:00,
2013-04-15 20:53:00,52.5,19.5,30.09,North,0,0.0,0.0,27,0.00,,---,0.00,VWS V12.08,2013-04-16 00:53:00,
2013-04-15 20:58:00,52.2,19.2,30.09,North,0,0.0,0.0,27,0.00,,---,0.00,VWS V12.08,2013-04-16 00:58:00,
2013-04-15 21:03:00,51.8,19.8,30.09,North,0,0.0,0.0,28,0.00,,---,0.00,VWS V12.08,2013-04-16 01:03:00,
2013-04-15 21:08:00,51.8,19.8,30.09,North,0,0.0,0.0,28,0.00,,---,0.00,VWS V12.08,2013-04-16 01:08:00,
2013-04-15 21:13:00,51.6,19.6,30.09,North,0,0.0,0.0,28,0.00,,---,0.00,VWS V12.08,2013-04-16 01:13:00,
2013-04-15 21:18:00,51.4,19.4,30.09,North,0,0.0,0.0,28,0.00,,---,0.00,VWS V12.08,2013-04-16 01:18:00,
2013-04-15 21:23:00,51.4,19.4,30.09,North,0,0.0,0.0,28,0.00,,---,0.00,VWS V12.08,2013-04-16 01:23:00,
2013-04-15 21:28:00,51.1,19.1,30.09,North,0,0.0,0.0,28,0.00,,---,0.00,VWS V12.08,2013-04-16 01:28:00,
2013-04-15 21:33:00,50.9,19.0,30.09,North,0,0.0,0.0,28,0.00,,---,0.00,VWS V12.08,2013-04-16 01:33:00,
2013-04-15 21:38:00,50.9,19.0,30.09,North,0,0.0,0.0,28,0.00,,---,0.00,VWS V12.08,2013-04-16 01:38:00,
2013-04-15 21:43:00,50.9,19.0,30.09,North,0,0.0,0.0,28,0.00,,---,0.00,VWS V12.08,2013-04-16 01:43:00,
2013-04-15 21:48:00,50.7,18.8,30.09,North,0,0.0,0.0,28,0.00,,---,0.00,VWS V12.08,2013-04-16 01:48:00,
2013-04-15 21:53:00,50.5,18.7,30.12,North,0,0.0,0.0,28,0.00,,---,0.00,VWS V12.08,2013-04-16 01:53:00,
2013-04-15 21:58:00,50.2,18.4,30.12,North,0,0.0,0.0,28,0.00,,---,0.00,VWS V12.08,2013-04-16 01:58:00,
2013-04-15 22:03:00,50.0,18.2,30.12,North,0,0.0,0.0,28,0.00,,---,0.00,VWS V12.08,2013-04-16 02:03:00,
2013-04-15 22:08:00,49.8,18.0,30.09,North,0,0.0,0.0,28,0.00,,---,0.00,VWS V12.08,2013-04-16 02:08:00,
2013-04-15 22:13:00,49.6,17.9,30.09,North,0,0.0,0.0,28,0.00,,---,0.00,VWS V12.08,2013-04-16 02:13:00,
2013-04-15 22:18:00,49.6,17.9,30.09,North,0,0.0,0.0,28,0.00,,---,0.00,VWS V12.08,2013-04-16 02:18:00,
2013-04-15 22:23:00,49.6,18.7,30.09,North,0,0.0,0.0,29,0.00,,---,0.00,VWS V12.08,2013-04-16 02:23:00,
2013-04-15 22:28:00,49.6,17.9,30.09,North,0,0.0,0.0,28,0.00,,---,0.00,VWS V12.08,2013-04-16 02:28:00,
2013-04-15 22:33:00,49.6,17.9,30.09,North,0,0.0,0.0,28,0.00,,---,0.00,VWS V12.08,2013-04-16 02:33:00,
2013-04-15 22:38:00,49.6,17.9,30.09,North,0,0.0,0.0,28,0.00,,---,0.00,VWS V12.08,2013-04-16 02:38:00,
2013-04-15 22:43:00,49.8,18.0,30.09,North,0,0.0,0.0,28,0.00,,---,0.00,VWS V12.08,2013-04-16 02:43:00,
2013-04-15 22:48:00,49.8,18.0,30.09,North,0,0.0,0.0,28,0.00,,---,0.00,VWS V12.08,2013-04-16 02:48:00,
2013-04-15 22:53:00,49.6,17.9,30.12,North,0,0.0,0.0,28,0.00,,---,0.00,VWS V12.08,2013-04-16 02:53:00,
2013-04-15 22:58:00,49.6,17.9,30.12,North,0,0.0,0.0,28,0.00,,---,0.00,VWS V12.08,2013-04-16 02:58:00,
2013-04-15 23:03:00,49.5,17.7,30.12,North,0,0.0,0.0,28,0.00,,---,0.00,VWS V12.08,2013-04-16 03:03:00,
2013-04-15 23:08:00,49.3,18.4,30.12,North,0,0.0,0.0,29,0.00,,---,0.00,VWS V12.08,2013-04-16 03:08:00,
2013-04-15 23:13:00,49.1,18.2,30.12,North,0,0.0,0.0,29,0.00,,---,0.00,VWS V12.08,2013-04-16 03:13:00,
2013-04-15 23:18:00,49.1,18.2,30.12,North,0,0.0,0.0,29,0.00,,---,0.00,VWS V12.08,2013-04-16 03:18:00,
2013-04-15 23:23:00,49.1,18.2,30.12,North,0,0.0,0.0,29,0.00,,---,0.00,VWS V12.08,2013-04-16 03:23:00,
2013-04-15 23:28:00,49.1,18.2,30.12,North,0,0.0,0.0,29,0.00,,---,0.00,VWS V12.08,2013-04-16 03:28:00,
2013-04-15 23:33:00,48.9,18.1,30.12,North,0,0.0,0.0,29,0.00,,---,0.00,VWS V12.08,2013-04-16 03:33:00,
2013-04-15 23:38:00,48.7,17.9,30.12,North,0,0.0,0.0,29,0.00,,---,0.00,VWS V12.08,2013-04-16 03:38:00,
2013-04-15 23:43:00,48.7,17.9,30.12,North,0,0.0,0.0,29,0.00,,---,0.00,VWS V12.08,2013-04-16 03:43:00,
2013-04-15 23:48:00,48.6,17.8,30.12,North,0,0.0,0.0,29,0.00,,---,0.00,VWS V12.08,2013-04-16 03:48:00,
2013-04-15 23:53:00,48.4,17.6,30.12,North,0,0.0,0.0,29,0.00,,---,0.00,VWS V12.08,2013-04-16 03:53:00,
2013-04-15 23:58:00,48.2,17.5,30.12,North,0,0.0,0.0,29,0.00,,---,0.00,VWS V12.08,2013-04-16 03:58:00,